Regional Weather Roundup
Issued by NWS Cleveland, OH

Home | Current Version | Previous Version | Graphics & Text | Print | Product List | Glossary On
Versions: 1 2 3 4 5 6 7 8 9 10 11 12 13 14 15 16 17 18 19 20 21 22 23 24 25 26 27 28 29 30 31 32 33 34 35 36 37 38 39 40 41 42 43 44 45 46 47 48 49 50
223
ASUS41 KCLE 270502
RWRCLE
OHIO REGIONAL WEATHER ROUNDUP
NATIONAL WEATHER SERVICE CLEVELAND, OH
100 AM EDT MON MAR 27 2017

NOTE: "FAIR" INDICATES FEW OR NO CLOUDS BELOW 12,000 FEET WITH NO
SIGNIFICANT WEATHER AND/OR OBSTRUCTIONS TO VISIBILITY.

OHZ001>008-015>018-024>027-034-035-043-044-270600-
   NORTHWEST OHIO

CITY           SKY/WX    TMP DP  RH WIND       PRES   REMARKS
DEFIANCE       CLOUDY    53  51  93 SW8       29.90S
FINDLAY        LGT RAIN  55  51  86 SW12      29.90S
TOLEDO EXPRESS CLOUDY    53  52  96 SW8       29.89S
TOLEDO EXEC    CLOUDY    53  52  96 S7        29.90S
LIMA           CLOUDY    54  53  97 SW9       29.92F
$$

OHZ009>014-019>023-028>033-038-089-270600-
   NORTHEAST OHIO

CITY           SKY/WX    TMP DP  RH WIND       PRES   REMARKS
CLE-HOPKINS    LGT RAIN  57  52  83 S8        29.93F
CLE-LAKEFRONT  CLOUDY    57  53  86 S9        29.89F
CUY CO. ARPT   NOT AVBL
LORAIN-ELYRIA  CLOUDY    55  51  86 S8        29.91F
ASHTABULA      LGT RAIN  53  51  93 S12       29.93F
AKRON-CANTON   LGT RAIN  55  52  89 S8        29.93F
WOOSTER        CLOUDY    54  52  93 S6        29.93F
MANSFIELD      MOCLDY    54  53  97 S9        29.92F
YOUNGSTOWN     LGT RAIN  53  51  93 SE7       29.95F FOG
$$

OHZ042-051>053-060>062-070>072-077>081-270600-
  SOUTHWEST OHIO

CITY           SKY/WX    TMP DP  RH WIND       PRES   REMARKS
CINC-COVINGTON CLOUDY    54  52  93 SW6       29.97F
CINC-LUNKEN    FOG       51 N/A N/A CALM      29.98S VSB 1
HAMILTON       CLEAR     51  51 100 CALM      29.97F
DAYTON         PTCLDY    53  51  93 SW10      29.95F
WRIGHT-PAT AFB CLEAR     51  51 100 SW6       29.95F
DAYTON GENERAL CLEAR     54  52  93 SW6       29.95F
WILMINGTON     MOCLDY    53  53 100 SW6       29.96F
$$

OHZ036-037-039>041-045>050-054>059-063>069-073>076-082>088-270600-
  CENTRAL AND SOUTHEAST OHIO

CITY           SKY/WX    TMP DP  RH WIND       PRES   REMARKS
COLUMBUS       MOCLDY    55  54  96 S7        29.95S
OSU AIRPORT    PTCLDY    53  53 100 S7        29.94F FOG
BOLTON FIELD   NOT AVBL
RICKENBACK AFB MOCLDY    54  54 100 S8        29.95F
NEWARK         CLOUDY    55  53  93 S3        29.95S
MARION         PTCLDY    54  52  93 S7        29.93F
LANCASTER      CLOUDY    57  54  89 S5        29.97S
ZANESVILLE     RAIN      56  54  93 SW3       29.96F FOG
NEW PHILLY     NOT AVBL
$$




USA.gov is the U.S. government's official web portal to all federal, state and local government web resources and services.